This demonstration page uses our WeatherBlox Daily Observations layout. Learn more.

41.55636, -103.73856

Hourly Observations for December 1, 2015

Temp ( °F °C ) Dew Point ( °F °C ) Humidity (%) Winds ( mph kmh ) Pressure ( in mb ) Visibility ( mi km ) Precip ( " mm )
12:53 am 00:53 Cloudy 28 -2.2 14 -10 56 56 WNW 21 33 29.86 1011 10 16.0934 0 0
1:53 am 01:53 Cloudy 29 -1.7 14 -10 54 54 WNW 23 37 29.86 1011 10 16.0934 0 0
2:53 am 02:53 Cloudy 28 -2.2 12 -11.1 51 51 WNW 25 41 29.88 1012 10 16.0934 0 0
3:53 am 03:53 Cloudy 28 -2.2 13 -10.6 53 53 WNW 15 24 29.87 1012 10 16.0934 0 0
4:53 am 04:53 Cloudy 28 -2.2 14 -10 56 56 WNW 17 28 29.88 1012 10 16.0934 0 0
5:53 am 05:53 Cloudy 28 -2.2 13 -10.6 53 53 WNW 20 31 29.89 1012 10 16.0934 0 0
6:53 am 06:53 Cloudy 29 -1.7 13 -10.6 51 51 WNW 17 28 29.92 1013 10 16.0934 0 0
7:53 am 07:53 Cloudy 30 -1.1 13 -10.6 49 49 WNW 24 39 29.92 1013 10 16.0934 0 0
8:53 am 08:53 Cloudy 31 -0.6 15 -9.4 52 52 WNW 22 35 29.93 1014 10 16.0934 0 0
9:53 am 09:53 Cloudy 34 1.1 17 -8.3 50 50 NW 20 31 29.93 1014 10 16.0934 0 0.0254
10:53 am 10:53 Cloudy 36 2.2 14 -10 40 40 NW 29 46 29.92 1013 10 16.0934 0 0
11:53 am 11:53 Cloudy 36 2.2 16 -8.9 44 44 NNW 31 50 29.93 1014 10 16.0934 0 0
12:53 pm 12:53 Mostly Cloudy 40 4.4 12 -11.1 32 32 NW 31 50 29.9 1013 10 16.0934 0 0
1:53 pm 13:53 Cloudy 38 3.3 12 -11.1 34 34 NW 30 48 29.93 1014 10 16.0934 0 0
2:53 pm 14:53 Cloudy 37 2.8 11 -11.7 34 34 NW 26 43 29.96 1015 10 16.0934 0 0
3:53 pm 15:53 Cloudy 37 2.8 12 -11.1 36 36 NW 22 35 29.99 1016 10 16.0934 0 0
4:53 pm 16:53 Clear 28 -2 16 -9 59 59 WNW 13 20 30.03 1017 10 16.0934 0 0
5:53 pm 17:53 Cloudy 36 2.2 16 -8.9 44 44 WNW 17 28 30.03 1017 10 16.0934 0 0
6:53 pm 18:53 Cloudy 36 2.2 15 -9.4 42 42 WNW 16 26 30.05 1018 10 16.0934 0 0
7:53 pm 19:53 Cloudy 35 1.7 16 -8.9 46 46 NW 18 30 30.07 1018 10 16.0934 0 0
8:53 pm 20:53 Cloudy 34 1.1 15 -9.4 46 46 NW 10 17 30.1 1019 10 16.0934 0 0
9:53 pm 21:53 Cloudy 35 1.7 15 -9.4 44 44 NW 16 26 30.09 1019 10 16.0934 0 0
10:53 pm 22:53 Cloudy 35 1.7 14 -10 42 42 WNW 17 28 30.1 1019 10 16.0934 0 0
11:53 pm 23:53 Mostly Cloudy 32 0 14 -10 47 47 WNW 13 20 30.13 1020 10 16.0934 0 0

Powered by AerisWeather